SAS41T EYVI-ESSA

Flight info

Callsign SAS41T
Flight time 1h 5m
Altitude 34000
Route ELEKA DCT ASKOR DCT NEKET DCT TOMBU N616 XILAN
Aircraft A320/M-SDE3FGHIRWY/LB1

Departure

Time 2026-05-06 13:23
Airport Vilnius International Airport (EYVI)

Arrival

Time 2026-05-06 14:29
Airport Stockholm-Arlanda Airport (ESSA)
Time Latitude Longitude Altitude Speed Heading
2026-05-06 13:02 54.64388 25.28188 637 ft 0 kts 227°
2026-05-06 13:13 54.64392 25.28197 640 ft 4 kts 227°
2026-05-06 13:14 54.64411 25.28231 646 ft 4 kts 227°
2026-05-06 13:14 54.64425 25.28257 637 ft 4 kts 219°
2026-05-06 13:14 54.64447 25.28277 645 ft 3 kts 182°
2026-05-06 13:14 54.64452 25.28277 640 ft 0 kts 180°
2026-05-06 13:17 54.64446 25.28278 645 ft 2 kts 175°
2026-05-06 13:17 54.64428 25.28295 641 ft 4 kts 140°
2026-05-06 13:17 54.64411 25.28341 638 ft 5 kts 118°
2026-05-06 13:17 54.64404 25.28401 640 ft 6 kts 92°
2026-05-06 13:18 54.64405 25.28462 643 ft 5 kts 87°
2026-05-06 13:18 54.64407 25.28543 646 ft 8 kts 87°
2026-05-06 13:18 54.64402 25.28633 650 ft 8 kts 129°
2026-05-06 13:18 54.64337 25.28657 650 ft 11 kts 171°
2026-05-06 13:19 54.64248 25.28676 649 ft 14 kts 174°
2026-05-06 13:19 54.64136 25.28695 647 ft 18 kts 174°
2026-05-06 13:19 54.64024 25.28693 643 ft 17 kts 197°
2026-05-06 13:19 54.63895 25.28604 641 ft 23 kts 202°
2026-05-06 13:20 54.63724 25.28486 624 ft 26 kts 201°
2026-05-06 13:20 54.63591 25.28393 623 ft 23 kts 202°
2026-05-06 13:20 54.63426 25.28279 613 ft 28 kts 202°
2026-05-06 13:20 54.63245 25.28153 614 ft 29 kts 202°
2026-05-06 13:21 54.63079 25.28038 607 ft 24 kts 201°
2026-05-06 13:21 54.62912 25.27922 603 ft 28 kts 201°
2026-05-06 13:21 54.62742 25.27803 601 ft 21 kts 201°
2026-05-06 13:21 54.62601 25.27707 601 ft 23 kts 201°
2026-05-06 13:22 54.62521 25.27667 613 ft 9 kts 172°
2026-05-06 13:22 54.62464 25.27731 615 ft 11 kts 142°
2026-05-06 13:22 54.62420 25.27848 609 ft 10 kts 81°
2026-05-06 13:22 54.62486 25.27934 602 ft 16 kts 22°
2026-05-06 13:23 54.62763 25.28126 598 ft 77 kts 21°
2026-05-06 13:23 54.63447 25.28599 616 ft 131 kts 21°
2026-05-06 13:23 54.64376 25.29227 951 ft 143 kts 22°
2026-05-06 13:23 54.65304 25.29842 1541 ft 141 kts 26°
2026-05-06 13:24 54.66220 25.30488 2057 ft 144 kts 26°
2026-05-06 13:24 54.67170 25.31173 2382 ft 162 kts 28°
2026-05-06 13:24 54.68307 25.31986 2633 ft 189 kts 26°
2026-05-06 13:24 54.69579 25.32893 3046 ft 208 kts 25°
2026-05-06 13:25 54.71026 25.33903 3370 ft 233 kts 25°
2026-05-06 13:25 54.72573 25.34973 3918 ft 250 kts 24°
2026-05-06 13:25 54.74227 25.36113 4627 ft 262 kts 21°
2026-05-06 13:25 54.75983 25.37226 5166 ft 279 kts 11°
2026-05-06 13:26 54.77951 25.37230 5710 ft 289 kts 341°
2026-05-06 13:26 54.79713 25.35678 6527 ft 283 kts 313°
2026-05-06 13:26 54.80862 25.33008 7364 ft 274 kts 287°
2026-05-06 13:26 54.81216 25.29839 8211 ft 267 kts 265°
2026-05-06 13:27 54.81161 25.26610 9078 ft 269 kts 264°
2026-05-06 13:27 54.81097 25.23343 9901 ft 273 kts 264°
2026-05-06 13:27 54.81027 25.19937 10233 ft 295 kts 264°
2026-05-06 13:27 54.80954 25.16265 10616 ft 311 kts 264°
2026-05-06 13:28 54.80884 25.12472 11251 ft 317 kts 264°
2026-05-06 13:28 54.80816 25.08629 11975 ft 321 kts 264°
2026-05-06 13:28 54.80750 25.04749 12736 ft 324 kts 264°
2026-05-06 13:28 54.80681 25.00838 13490 ft 326 kts 264°
2026-05-06 13:29 54.80608 24.96890 14154 ft 329 kts 263°
2026-05-06 13:29 54.80532 24.92915 14797 ft 332 kts 263°
2026-05-06 13:29 54.80451 24.88901 15424 ft 335 kts 263°
2026-05-06 13:29 54.80367 24.84857 16045 ft 337 kts 263°
2026-05-06 13:30 54.80284 24.80780 16701 ft 340 kts 263°
2026-05-06 13:30 54.80238 24.76666 17341 ft 345 kts 268°
2026-05-06 13:30 54.80642 24.72518 17945 ft 356 kts 282°
2026-05-06 13:30 54.81660 24.68538 18502 ft 368 kts 296°
2026-05-06 13:31 54.83281 24.65026 19085 ft 381 kts 311°
2026-05-06 13:31 54.85400 24.62168 19686 ft 389 kts 319°
2026-05-06 13:31 54.87606 24.59431 20267 ft 392 kts 319°
2026-05-06 13:31 54.89828 24.56665 20819 ft 394 kts 319°
2026-05-06 13:32 54.92064 24.53869 21368 ft 397 kts 319°
2026-05-06 13:32 54.94309 24.51052 21910 ft 400 kts 319°
2026-05-06 13:32 54.96572 24.48205 22462 ft 402 kts 318°
2026-05-06 13:32 54.98843 24.45336 23005 ft 405 kts 318°
2026-05-06 13:33 55.01134 24.42438 23534 ft 408 kts 318°
2026-05-06 13:33 55.03437 24.39524 23978 ft 411 kts 318°
2026-05-06 13:33 55.05756 24.36588 24399 ft 413 kts 318°
2026-05-06 13:33 55.08085 24.33638 24832 ft 415 kts 318°
2026-05-06 13:34 55.10396 24.30709 25263 ft 418 kts 318°
2026-05-06 13:34 55.12755 24.27711 25694 ft 420 kts 318°
2026-05-06 13:34 55.15119 24.24694 26089 ft 423 kts 318°
2026-05-06 13:34 55.17502 24.21653 26485 ft 425 kts 318°
2026-05-06 13:35 55.19902 24.18591 26875 ft 428 kts 318°
2026-05-06 13:35 55.22311 24.15511 27254 ft 430 kts 318°
2026-05-06 13:35 55.24733 24.12406 27652 ft 433 kts 318°
2026-05-06 13:35 55.27168 24.09280 28041 ft 435 kts 318°
2026-05-06 13:36 55.29614 24.06139 28414 ft 437 kts 318°
2026-05-06 13:36 55.32073 24.02972 28808 ft 439 kts 318°
2026-05-06 13:36 55.34545 23.99783 29174 ft 442 kts 318°
2026-05-06 13:36 55.37028 23.96577 29536 ft 444 kts 318°
2026-05-06 13:37 55.39524 23.93345 29915 ft 447 kts 317°
2026-05-06 13:37 55.42034 23.90085 30175 ft 450 kts 317°
2026-05-06 13:37 55.44559 23.86801 30456 ft 453 kts 317°
2026-05-06 13:37 55.47102 23.83496 30754 ft 455 kts 317°
2026-05-06 13:38 55.49654 23.80180 31085 ft 456 kts 317°
2026-05-06 13:38 55.51340 23.77986 31380 ft 455 kts 317°
2026-05-06 13:38 55.53882 23.74677 31833 ft 453 kts 317°
2026-05-06 13:38 55.56415 23.71376 32284 ft 452 kts 317°
2026-05-06 13:39 55.58939 23.68078 32729 ft 451 kts 317°
2026-05-06 13:39 55.61453 23.64778 33174 ft 449 kts 317°
2026-05-06 13:39 55.63957 23.61484 33651 ft 448 kts 316°
2026-05-06 13:39 55.66448 23.58208 34148 ft 445 kts 316°
2026-05-06 13:40 55.69775 23.53828 34573 ft 446 kts 317°
2026-05-06 13:40 55.71418 23.51654 34776 ft 446 kts 317°
2026-05-06 13:40 55.73900 23.48364 35102 ft 445 kts 317°
2026-05-06 13:40 55.76378 23.45078 35438 ft 444 kts 317°
2026-05-06 13:41 55.78850 23.41799 35788 ft 443 kts 317°
2026-05-06 13:41 55.81324 23.38513 35904 ft 443 kts 317°
2026-05-06 13:41 55.83792 23.35231 35922 ft 443 kts 317°
2026-05-06 13:42 55.88719 23.28660 35919 ft 442 kts 317°
2026-05-06 13:42 55.93633 23.22069 35933 ft 442 kts 317°
2026-05-06 13:43 55.98552 23.15447 35922 ft 443 kts 317°
2026-05-06 13:43 56.03482 23.08809 35940 ft 443 kts 316°
2026-05-06 13:44 56.08403 23.02171 35943 ft 443 kts 316°
2026-05-06 13:44 56.13317 22.95510 35950 ft 443 kts 316°
2026-05-06 13:45 56.18222 22.88835 35955 ft 442 kts 316°
2026-05-06 13:45 56.25568 22.78783 35961 ft 443 kts 316°
2026-05-06 13:46 56.30469 22.72065 35963 ft 443 kts 316°
2026-05-06 13:46 56.35362 22.65321 35963 ft 443 kts 316°
2026-05-06 13:47 56.40484 22.59079 35981 ft 450 kts 325°
2026-05-06 13:47 56.45962 22.53630 35979 ft 449 kts 324°
2026-05-06 13:48 56.51423 22.48158 35972 ft 448 kts 324°
2026-05-06 13:48 56.56861 22.42692 35957 ft 446 kts 324°
2026-05-06 13:49 56.62288 22.37204 35954 ft 447 kts 324°
2026-05-06 13:49 56.67719 22.31690 35956 ft 448 kts 324°
2026-05-06 13:50 56.73162 22.26167 35966 ft 448 kts 324°
2026-05-06 13:50 56.78570 22.20660 35971 ft 448 kts 324°
2026-05-06 13:51 56.84014 22.15082 35995 ft 449 kts 324°
2026-05-06 13:51 56.89459 22.09485 35983 ft 449 kts 324°
2026-05-06 13:52 56.94913 22.03876 35984 ft 450 kts 324°
2026-05-06 13:52 57.00368 21.98246 35982 ft 450 kts 324°
2026-05-06 13:53 57.05821 21.92593 35978 ft 450 kts 324°
2026-05-06 13:53 57.11273 21.86930 35995 ft 450 kts 324°
2026-05-06 13:54 57.16709 21.81243 36000 ft 449 kts 324°
2026-05-06 13:54 57.22120 21.75574 35963 ft 447 kts 324°
2026-05-06 13:55 57.27528 21.69902 35959 ft 447 kts 324°
2026-05-06 13:55 57.32935 21.64203 35971 ft 448 kts 323°
2026-05-06 13:56 57.38346 21.58474 35976 ft 448 kts 323°
2026-05-06 13:56 57.43756 21.52726 35985 ft 448 kts 323°
2026-05-06 13:57 57.49160 21.46964 36036 ft 448 kts 323°
2026-05-06 13:57 57.54548 21.41204 35986 ft 446 kts 323°
2026-05-06 13:58 57.59908 21.35454 35988 ft 446 kts 323°
2026-05-06 13:58 57.65265 21.29676 35991 ft 446 kts 322°
2026-05-06 13:59 57.70636 21.23843 36005 ft 446 kts 322°
2026-05-06 13:59 57.75347 21.18725 36006 ft 447 kts 323°
2026-05-06 14:00 57.80708 21.12904 36008 ft 447 kts 323°
2026-05-06 14:00 57.86089 21.07045 36021 ft 446 kts 322°
2026-05-06 14:01 57.91440 21.01198 36020 ft 444 kts 322°
2026-05-06 14:01 57.96738 20.95385 36014 ft 444 kts 322°
2026-05-06 14:02 58.02107 20.89478 36027 ft 444 kts 322°
2026-05-06 14:02 58.07429 20.83596 36029 ft 443 kts 322°
2026-05-06 14:03 58.12716 20.77718 36024 ft 443 kts 322°
2026-05-06 14:03 58.18033 20.71797 36042 ft 444 kts 322°
2026-05-06 14:04 58.23351 20.65849 36035 ft 444 kts 321°
2026-05-06 14:04 58.28680 20.59863 36040 ft 443 kts 321°
2026-05-06 14:05 58.33997 20.53952 36040 ft 445 kts 323°
2026-05-06 14:05 58.36563 20.50765 36038 ft 433 kts 311°
2026-05-06 14:05 58.38726 20.46854 36037 ft 428 kts 308°
2026-05-06 14:06 58.42973 20.38869 36041 ft 429 kts 307°
2026-05-06 14:06 58.47203 20.30840 35860 ft 429 kts 307°
2026-05-06 14:07 58.49315 20.26827 35607 ft 428 kts 307°
2026-05-06 14:07 58.51525 20.22961 34933 ft 441 kts 315°
2026-05-06 14:07 58.54066 20.19487 33753 ft 456 kts 316°
2026-05-06 14:07 58.56700 20.16019 32911 ft 459 kts 317°
2026-05-06 14:08 58.59324 20.12658 32622 ft 450 kts 317°
2026-05-06 14:08 58.61912 20.09360 32124 ft 444 kts 317°
2026-05-06 14:08 58.64467 20.06078 31619 ft 439 kts 316°
2026-05-06 14:08 58.66982 20.02804 31103 ft 435 kts 316°
2026-05-06 14:09 58.69467 19.99532 30576 ft 431 kts 316°
2026-05-06 14:09 58.71926 19.96266 30047 ft 428 kts 316°
2026-05-06 14:09 58.74363 19.93016 29514 ft 423 kts 316°
2026-05-06 14:09 58.76773 19.89806 28963 ft 420 kts 316°
2026-05-06 14:10 58.79170 19.86619 28471 ft 415 kts 316°
2026-05-06 14:10 58.81521 19.83501 28061 ft 407 kts 316°
2026-05-06 14:10 58.83836 19.80423 27630 ft 402 kts 316°
2026-05-06 14:10 58.86123 19.77371 27217 ft 397 kts 316°
2026-05-06 14:11 58.88384 19.74346 26808 ft 393 kts 316°
2026-05-06 14:11 58.90624 19.71347 26397 ft 390 kts 316°
2026-05-06 14:11 58.92846 19.68368 25993 ft 387 kts 316°
2026-05-06 14:11 58.95051 19.65403 25575 ft 385 kts 316°
2026-05-06 14:12 58.97244 19.62448 25195 ft 383 kts 316°
2026-05-06 14:12 58.99428 19.59505 24803 ft 380 kts 316°
2026-05-06 14:12 59.01560 19.56633 24348 ft 378 kts 316°
2026-05-06 14:12 59.03689 19.53764 23871 ft 367 kts 316°
2026-05-06 14:13 59.05777 19.50952 23412 ft 356 kts 316°
2026-05-06 14:13 59.07804 19.48203 22990 ft 353 kts 316°
2026-05-06 14:13 59.09804 19.45476 22549 ft 350 kts 316°
2026-05-06 14:13 59.11789 19.42769 22138 ft 346 kts 316°
2026-05-06 14:14 59.13751 19.40092 21724 ft 343 kts 316°
2026-05-06 14:14 59.15695 19.37441 21310 ft 339 kts 316°
2026-05-06 14:14 59.17590 19.34852 20908 ft 336 kts 316°
2026-05-06 14:14 59.19499 19.32238 20504 ft 338 kts 317°
2026-05-06 14:15 59.21536 19.29405 20068 ft 369 kts 317°
2026-05-06 14:15 59.23630 19.26488 19615 ft 378 kts 318°
2026-05-06 14:15 59.25787 19.23520 19152 ft 379 kts 319°
2026-05-06 14:15 59.27948 19.20567 18689 ft 378 kts 319°
2026-05-06 14:16 59.30101 19.17630 18212 ft 376 kts 319°
2026-05-06 14:16 59.32238 19.14705 17717 ft 374 kts 319°
2026-05-06 14:16 59.34359 19.11789 17256 ft 371 kts 320°
2026-05-06 14:16 59.36462 19.08890 16809 ft 367 kts 319°
2026-05-06 14:17 59.38532 19.06023 16362 ft 362 kts 320°
2026-05-06 14:17 59.40582 19.03176 15918 ft 359 kts 320°
2026-05-06 14:17 59.42615 19.00349 15470 ft 357 kts 320°
2026-05-06 14:17 59.44632 18.97534 15039 ft 354 kts 320°
2026-05-06 14:18 59.46546 18.94564 14604 ft 347 kts 311°
2026-05-06 14:18 59.48172 18.91086 14141 ft 344 kts 308°
2026-05-06 14:18 59.49743 18.87557 13660 ft 342 kts 308°
2026-05-06 14:18 59.51291 18.84029 13142 ft 339 kts 308°
2026-05-06 14:19 59.52822 18.80516 12637 ft 337 kts 308°
2026-05-06 14:19 59.54339 18.77019 12117 ft 335 kts 308°
2026-05-06 14:19 59.55845 18.73524 11623 ft 333 kts 308°
2026-05-06 14:19 59.57333 18.70046 11249 ft 332 kts 308°
2026-05-06 14:20 59.58813 18.66570 10891 ft 331 kts 308°
2026-05-06 14:20 59.60286 18.63094 10461 ft 329 kts 308°
2026-05-06 14:20 59.61744 18.59636 10037 ft 327 kts 308°
2026-05-06 14:20 59.63192 18.56178 9593 ft 325 kts 308°
2026-05-06 14:21 59.64619 18.52760 9126 ft 320 kts 308°
2026-05-06 14:21 59.66024 18.49385 8713 ft 314 kts 308°
2026-05-06 14:21 59.67386 18.46109 8360 ft 300 kts 308°
2026-05-06 14:21 59.68673 18.43015 8012 ft 282 kts 308°
2026-05-06 14:22 59.69887 18.40092 7670 ft 269 kts 308°
2026-05-06 14:22 59.71073 18.37231 7311 ft 269 kts 308°
2026-05-06 14:22 59.72254 18.34372 6942 ft 266 kts 308°
2026-05-06 14:22 59.73414 18.31560 6588 ft 264 kts 308°
2026-05-06 14:23 59.74576 18.28739 6216 ft 264 kts 308°
2026-05-06 14:23 59.75720 18.25964 5886 ft 261 kts 308°
2026-05-06 14:23 59.76844 18.23244 5563 ft 249 kts 308°
2026-05-06 14:23 59.77946 18.20583 5239 ft 246 kts 308°
2026-05-06 14:24 59.78668 18.18850 5036 ft 246 kts 308°
2026-05-06 14:24 59.80116 18.15396 4618 ft 245 kts 305°
2026-05-06 14:24 59.80894 18.12427 4299 ft 242 kts 290°
2026-05-06 14:24 59.81476 18.09301 3986 ft 240 kts 288°
2026-05-06 14:25 59.81915 18.06136 3695 ft 236 kts 270°
2026-05-06 14:25 59.81704 18.04020 3508 ft 230 kts 242°
2026-05-06 14:25 59.80598 18.01892 3302 ft 223 kts 204°
2026-05-06 14:25 59.79113 18.01050 3024 ft 223 kts 192°
2026-05-06 14:26 59.77611 18.00510 2733 ft 222 kts 191°
2026-05-06 14:26 59.76094 17.99971 2445 ft 221 kts 191°
2026-05-06 14:26 59.74612 17.99434 2133 ft 210 kts 190°
2026-05-06 14:26 59.73248 17.98936 1860 ft 190 kts 190°
2026-05-06 14:27 59.72001 17.98480 1638 ft 176 kts 190°
2026-05-06 14:27 59.70827 17.98051 1365 ft 165 kts 190°
2026-05-06 14:27 59.69737 17.97654 1147 ft 153 kts 189°
2026-05-06 14:27 59.68752 17.97295 937 ft 137 kts 190°
2026-05-06 14:28 59.67829 17.96963 734 ft 134 kts 191°
2026-05-06 14:28 59.66922 17.96637 543 ft 131 kts 193°
2026-05-06 14:28 59.66026 17.96302 355 ft 131 kts 194°
2026-05-06 14:28 59.65127 17.95983 198 ft 131 kts 192°
2026-05-06 14:29 59.64246 17.95667 114 ft 119 kts 191°
2026-05-06 14:29 59.63615 17.95433 118 ft 49 kts 191°
2026-05-06 14:29 59.63391 17.95270 120 ft 28 kts 212°
2026-05-06 14:29 59.63262 17.95068 123 ft 12 kts 224°
2026-05-06 14:30 59.63260 17.94926 121 ft 11 kts 320°
2026-05-06 14:30 59.63349 17.94926 121 ft 15 kts 10°
2026-05-06 14:30 59.63472 17.94971 115 ft 21 kts 10°
2026-05-06 14:30 59.63632 17.95028 111 ft 26 kts 10°
2026-05-06 14:31 59.63825 17.95098 110 ft 28 kts 11°
2026-05-06 14:31 59.64007 17.95164 109 ft 28 kts 10°
2026-05-06 14:31 59.64205 17.95237 107 ft 26 kts 11°
2026-05-06 14:31 59.64391 17.95304 106 ft 29 kts 10°
2026-05-06 14:32 59.64581 17.95373 105 ft 27 kts 10°
2026-05-06 14:32 59.64772 17.95444 106 ft 29 kts 10°
2026-05-06 14:32 59.64945 17.95506 110 ft 22 kts 10°
2026-05-06 14:32 59.65093 17.95490 115 ft 21 kts 345°
2026-05-06 14:33 59.65235 17.95415 121 ft 21 kts 345°
2026-05-06 14:33 59.65368 17.95345 126 ft 19 kts 346°
2026-05-06 14:33 59.65502 17.95273 126 ft 21 kts 345°
2026-05-06 14:33 59.65641 17.95199 127 ft 18 kts 346°
2026-05-06 14:34 59.65730 17.95126 125 ft 14 kts 315°
2026-05-06 14:34 59.65737 17.94923 125 ft 17 kts 256°
2026-05-06 14:34 59.65707 17.94683 125 ft 19 kts 256°
2026-05-06 14:34 59.65675 17.94428 124 ft 20 kts 256°
2026-05-06 14:35 59.65640 17.94153 121 ft 22 kts 256°
2026-05-06 14:35 59.65614 17.93950 114 ft 11 kts 255°
2026-05-06 14:35 59.65558 17.93873 111 ft 13 kts 168°
2026-05-06 14:35 59.65480 17.93912 113 ft 9 kts 166°
2026-05-06 14:36 59.65448 17.93912 113 ft 4 kts 214°
2026-05-06 14:36 59.65434 17.93836 112 ft 7 kts 255°
2026-05-06 14:36 59.65427 17.93782 111 ft 3 kts 256°
2026-05-06 14:36 59.65426 17.93774 111 ft 0 kts 256°